This is the latest recevied weather packets stored in our database for station/object SQ9RHX-13. If no packets are shown the sender has not sent any weather packets the latest 10 day(s).
| Time | Temp. | Humidity | Pressure | Rain* | Wind** | Luminosity | Snow |
|---|---|---|---|---|---|---|---|
| 1777997705 | 26.11° C | 35% | 1008.7 hPa | 0 mm | - | 85 W/m² | - |
| 1777997402 | 26.11° C | 34% | 1008.8 hPa | 0 mm | - | 98 W/m² | - |
| 1777997104 | 26.67° C | 33% | 1008.7 hPa | 0 mm | - | 107 W/m² | - |
| 1777996802 | 26.67° C | 33% | 1008.8 hPa | 0 mm | - | 115 W/m² | - |
| 1777996502 | 27.22° C | 32% | 1008.8 hPa | 0 mm | - | 113 W/m² | - |
| 1777996203 | 27.22° C | 32% | 1009 hPa | 0 mm | - | 129 W/m² | - |
| 1777995903 | 27.78° C | 33% | 1008.9 hPa | 0 mm | - | 153 W/m² | - |
| 1777995603 | 27.78° C | 31% | 1008.9 hPa | 0 mm | - | 161 W/m² | - |
| 1777995304 | 28.33° C | 30% | 1008.9 hPa | 0 mm | - | 162 W/m² | - |
| 1777995005 | 28.33° C | 30% | 1009.1 hPa | 0 mm | - | 169 W/m² | - |
| 1777994703 | 27.78° C | 31% | 1009.1 hPa | 0 mm | - | 169 W/m² | - |
| 1777994404 | 27.78° C | 30% | 1009.2 hPa | 0 mm | - | 178 W/m² | - |
| 1777994106 | 27.78° C | 32% | 1009.2 hPa | 0 mm | - | 189 W/m² | - |
| 1777993804 | 27.78° C | 31% | 1009 hPa | 0 mm | - | 213 W/m² | - |
| 1777993503 | 28.33° C | 30% | 1008.9 hPa | 0 mm | - | 229 W/m² | - |
| 1777993203 | 28.89° C | 29% | 1009.1 hPa | 0 mm | - | 258 W/m² | - |
| 1777992902 | 27.78° C | 31% | 1009.1 hPa | 0 mm | - | 273 W/m² | - |
| 1777992603 | 27.78° C | 32% | 1009.1 hPa | 0 mm | - | 282 W/m² | - |
| 1777992304 | 27.22° C | 31% | 1009.2 hPa | 0 mm | - | 288 W/m² | - |
| 1777992003 | 27.78° C | 31% | 1009.2 hPa | 0 mm | - | 313 W/m² | - |
| 1777991704 | 27.22° C | 33% | 1009.4 hPa | 0 mm | - | 336 W/m² | - |
| 1777991404 | 27.78° C | 32% | 1009.3 hPa | 0 mm | - | 371 W/m² | - |
| 1777991103 | 26.67° C | 34% | 1009.4 hPa | 0 mm | - | 370 W/m² | - |
| 1777990803 | 26.67° C | 34% | 1009.3 hPa | 0 mm | - | 365 W/m² | - |
| 1777990503 | 26.67° C | 34% | 1009.3 hPa | 0 mm | - | 261 W/m² | - |
* Rain latest hour (hover to see other rain measurements)
** Current wind speed in m/s (hover to see current wind gust speed)